TimeMDT,TemperatureF,Dew PointF,Humidity,Sea Level PressureIn,VisibilityMPH,Wind Direction,Wind SpeedMPH,Gust SpeedMPH,PrecipitationIn,Events,Conditions,WindDirDegrees,DateUTC
12:15 AM,37.4,28.4,70,30.28,10.0,Calm,Calm,-,N/A,,Clear,0,2012-10-18 06:15:00
12:35 AM,37.4,28.4,70,30.28,10.0,Calm,Calm,-,N/A,,Clear,0,2012-10-18 06:35:00
1:15 AM,37.4,28.4,70,30.29,10.0,Calm,Calm,-,N/A,,Clear,0,2012-10-18 07:15:00
1:35 AM,39.2,30.2,70,30.30,10.0,Calm,Calm,-,N/A,,Clear,0,2012-10-18 07:35:00
1:55 AM,35.6,26.6,70,30.31,10.0,NE,3.5,-,N/A,,Clear,50,2012-10-18 07:55:00
2:15 AM,35.6,28.4,75,30.30,10.0,Calm,Calm,-,N/A,,Clear,0,2012-10-18 08:15:00
2:35 AM,35.6,26.6,70,30.30,10.0,Calm,Calm,-,N/A,,Clear,0,2012-10-18 08:35:00
2:55 AM,35.6,28.4,75,30.30,10.0,Calm,Calm,-,N/A,,Clear,0,2012-10-18 08:55:00
3:15 AM,35.6,26.6,70,30.30,10.0,Calm,Calm,-,N/A,,Clear,0,2012-10-18 09:15:00
3:35 AM,33.8,26.6,75,30.31,10.0,Calm,Calm,-,N/A,,Clear,0,2012-10-18 09:35:00
3:55 AM,33.8,26.6,75,30.31,10.0,Calm,Calm,-,N/A,,Clear,0,2012-10-18 09:55:00
4:15 AM,35.6,26.6,70,30.30,10.0,Calm,Calm,-,N/A,,Clear,0,2012-10-18 10:15:00
4:35 AM,33.8,26.6,75,30.30,10.0,Calm,Calm,-,N/A,,Clear,0,2012-10-18 10:35:00
4:55 AM,33.8,26.6,75,30.30,10.0,ENE,5.8,-,N/A,,Clear,70,2012-10-18 10:55:00
5:35 AM,33.8,26.6,75,30.31,10.0,Calm,Calm,-,N/A,,Clear,0,2012-10-18 11:35:00
5:55 AM,33.8,26.6,75,30.31,10.0,SSE,3.5,-,N/A,,Clear,160,2012-10-18 11:55:00
6:15 AM,33.8,24.8,70,30.31,10.0,Calm,Calm,-,N/A,,Clear,0,2012-10-18 12:15:00
6:35 AM,32.0,24.8,75,30.31,10.0,ENE,3.5,-,N/A,,Clear,60,2012-10-18 12:35:00
6:55 AM,30.2,24.8,80,30.31,10.0,NE,3.5,-,N/A,,Clear,50,2012-10-18 12:55:00
7:15 AM,30.2,24.8,80,30.31,10.0,Calm,Calm,-,N/A,,Clear,0,2012-10-18 13:15:00
7:35 AM,30.2,24.8,80,30.32,10.0,NE,3.5,-,N/A,,Clear,50,2012-10-18 13:35:00
8:15 AM,30.2,24.8,80,30.32,10.0,Calm,Calm,-,N/A,,Clear,0,2012-10-18 14:15:00
8:35 AM,30.2,24.8,80,30.32,10.0,Calm,Calm,-,N/A,,Clear,0,2012-10-18 14:35:00
8:55 AM,33.8,24.8,70,30.33,10.0,Calm,Calm,-,N/A,,Clear,0,2012-10-18 14:55:00
9:35 AM,35.6,28.4,75,30.34,10.0,Calm,Calm,-,N/A,,Clear,0,2012-10-18 15:35:00
9:55 AM,37.4,28.4,70,30.34,10.0,Calm,Calm,-,N/A,,Clear,0,2012-10-18 15:55:00
10:35 AM,42.8,30.2,61,30.34,10.0,Calm,Calm,-,N/A,,Clear,0,2012-10-18 16:35:00
10:55 AM,44.6,33.8,66,30.34,10.0,Calm,Calm,-,N/A,,Clear,0,2012-10-18 16:55:00
11:35 AM,46.4,33.8,62,30.33,10.0,Calm,Calm,-,N/A,,Clear,0,2012-10-18 17:35:00
11:55 AM,46.4,33.8,62,30.33,4.0,Calm,Calm,-,N/A,,Clear,0,2012-10-18 17:55:00
12:15 PM,48.2,33.8,58,30.32,10.0,Calm,Calm,-,N/A,,Clear,0,2012-10-18 18:15:00
12:35 PM,50.0,33.8,54,30.32,10.0,Calm,Calm,-,N/A,,Clear,0,2012-10-18 18:35:00
12:55 PM,51.8,35.6,54,30.32,10.0,Calm,Calm,-,N/A,,Clear,0,2012-10-18 18:55:00
1:15 PM,53.6,35.6,51,30.31,10.0,Calm,Calm,-,N/A,,Clear,0,2012-10-18 19:15:00
1:55 PM,55.4,35.6,47,30.28,10.0,ESE,4.6,-,N/A,,Clear,110,2012-10-18 19:55:00
2:15 PM,55.4,33.8,44,30.26,10.0,ESE,3.5,-,N/A,,Clear,120,2012-10-18 20:15:00
2:35 PM,57.2,33.8,41,30.25,10.0,ESE,5.8,-,N/A,,Clear,120,2012-10-18 20:35:00
2:55 PM,59.0,33.8,39,30.24,10.0,East,4.6,-,N/A,,Clear,80,2012-10-18 20:55:00
3:16 PM,60.8,32.0,34,30.23,10.0,Calm,Calm,-,N/A,,Clear,0,2012-10-18 21:16:00
3:35 PM,60.8,32.0,34,30.22,10.0,East,3.5,-,N/A,,Clear,100,2012-10-18 21:35:00
3:55 PM,62.6,32.0,32,30.21,10.0,ESE,8.1,-,N/A,,Clear,110,2012-10-18 21:55:00
4:35 PM,62.6,30.2,30,30.19,10.0,East,6.9,-,N/A,,Clear,100,2012-10-18 22:35:00
4:55 PM,62.6,30.2,30,30.18,10.0,ESE,6.9,-,N/A,,Clear,110,2012-10-18 22:55:00
5:15 PM,62.6,32.0,32,30.17,10.0,East,4.6,-,N/A,,Clear,100,2012-10-18 23:15:00
5:35 PM,62.6,32.0,32,30.16,10.0,East,5.8,-,N/A,,Clear,90,2012-10-18 23:35:00
5:55 PM,62.6,32.0,32,30.15,10.0,East,3.5,-,N/A,,Clear,80,2012-10-18 23:55:00
6:35 PM,60.8,32.0,34,30.14,10.0,East,3.5,-,N/A,,Clear,80,2012-10-19 00:35:00
6:55 PM,59.0,35.6,42,30.13,10.0,NNE,4.6,-,N/A,,Clear,30,2012-10-19 00:55:00
7:15 PM,55.4,35.6,47,30.12,10.0,ENE,4.6,-,N/A,,Clear,60,2012-10-19 01:15:00
7:35 PM,53.6,33.8,47,30.11,10.0,SSE,4.6,-,N/A,,Clear,150,2012-10-19 01:35:00
7:55 PM,53.6,33.8,47,30.11,10.0,ESE,4.6,-,N/A,,Clear,110,2012-10-19 01:55:00
8:15 PM,53.6,32.0,44,30.11,10.0,ESE,4.6,-,N/A,,Clear,110,2012-10-19 02:15:00
8:55 PM,48.2,32.0,54,30.10,7.0,ESE,6.9,-,N/A,,Clear,120,2012-10-19 02:55:00
9:15 PM,48.2,32.0,54,30.09,10.0,SE,3.5,-,N/A,,Clear,140,2012-10-19 03:15:00
9:55 PM,46.4,30.2,53,30.09,10.0,ESE,5.8,-,N/A,,Clear,120,2012-10-19 03:55:00
10:15 PM,46.4,30.2,53,30.09,10.0,Calm,Calm,-,N/A,,Clear,0,2012-10-19 04:15:00
10:35 PM,42.8,28.4,57,30.08,10.0,ESE,6.9,-,N/A,,Clear,110,2012-10-19 04:35:00
10:55 PM,44.6,28.4,53,30.08,5.0,East,6.9,-,N/A,,Clear,90,2012-10-19 04:55:00